Location: Chacón
(10.5789°N, 66.9317°W)
Time: 15:24:56
(UTC+00:00)

Cosmos 1727 Rocket - Pass Details

Date: 08 August 2024
Orbit: 960 x 997 km, 82.9° (Epoch: 08 September)

Event Time Altitude Azimuth Distance (km) Brightness Sun altitude
Rises 23:49:38 0° 16° (NNE) 3,645 7.1 -15.0°
Reaches altitude 10° 23:52:33 10° 28° (NNE) 2,694 6.2 -15.7°
Maximum altitude 23:57:38 27° 84° (E) 1,752 4.8 -16.9°
Enters shadow 23:58:38 26° 100° (E) 1,798 4.8 -17.1°
